SCP
0 0 0 0 0 0 0 0 0 0 0 1 1 2 2 2 1 1 1 1 1 1 1 0 0 0 0 0 0 0 1 1 1 0 0 0 0 0 0 0 0 0 0
0 0 0 0 0 0 0 0 0 0 0 0 1 2 2 2 2 1 1 1 1 1 1 1 1 1 0 0 0 0 0 1 1 0 0 0 0 0 0 0 0 0 0
0 0 0 0 0 0 0 0 0 0 0 0 1 1 2 2 2 2 1 1 1 1 1 1 1 1 1 1 0 0 0 0 0 0 0 0 0 0 0 0 0 0 0
0 0 0 0 0 0 0 0 0 0 0 0 0 1 1 1 2 2 1 1 1 1 1 1 1 1 1 1 1 0 0 0 0 0 0 0 0 0 0 0 0 0 0
0 0 0 0 0 0 0 0 0 0 0 0 0 0 0 1 1 1 1 1 1 1 1 1 1 1 1 1 0 0 0 0 0 0 0 0 0 0 0 0 0 0 0
0 0 0 0 0 0 0 0 0 0 0 0 0 0 0 0 0 0 1 1 1 1 1 1 1 0 0 0 0 0 0 0 0 0 0 0 0 0 0 0 0 0 0
0 0 0 0 0 0 0 0 0 0 0 0 0 0 0 0 0 0 0 0 1 1 1 1 0 0 0 0 0 0 0 0 0 0 0 0 0 0 0 0 0 0 0
0 0 0 0 0 0 0 0 0 0 0 0 0 0 0 0 0 0 0 0 0 1 0 0 0 0 0 0 0 0 0 0 0 0 0 0 0 0 0 0 0 0 0
0 0 0 0 0 0 0 0 0 0 0 0 0 0 0 0 0 0 0 0 0 0 0 0 0 0 0 0 0 0 0 0 0 0 0 0 0 0 0 0 0 0 0
0 0 0 0 0 0 0 0 0 0 0 0 0 0 0 0 0 0 0 0 0 0 0 0 0 0 0 0 0 0 0 0 0 0 0 0 0 0 0 0 0 0 0
0 0 0 0 0 0 0 0 0 0 0 0 0 0 0 0 0 0 0 0 0 0 0 0 0 0 0 0 0 0 0 0 0 0 0 0 0 0 0 0 0 0 0
0 0 0 0 0 0 0 0 0 0 0 0 0 0 0 0 0 0 0 0 0 0 0 0 0 0 0 0 0 0 0 0 0 0 0 0 0 0 0 0 0 0 0
0 0 0 0 0 0 0 0 0 0 0 0 0 0 0 0 0 0 0 0 0 0 0 0 0 0 0 0 0 0 0 0 0 0 0 0 0 0 0 0 0 0 0
0 0 0 0 0 0 0 0 0 0 0 0 0 0 0 0 0 0 0 0 0 0 0 0 0 0 0 0 0 0 0 0 0 0 0 0 0 0 0 0 0 0 0
0 0 0 0 0 0 0 0 0 0 0 0 0 0 0 0 0 0 0 0 0 0 0 0 0 0 0 0 0 0 0 0 0 0 0 0 0 0 0 0 0 0 0
0 0 0 0 0 0 0 0 0 0 0 0 0 0 0 0 0 0 0 0 0 0 0 0 0 0 0 0 0 0 0 0 0 0 0 0 0 0 0 0 0 0 0
0 0 0 0 0 0 0 0 0 0 0 0 0 0 0 0 0 0 0 0 0 0 0 0 0 0 0 0 0 0 0 0 0 0 0 0 0 0 0 0 0 0 0
0 0 0 0 0 0 0 0 0 0 0 0 0 0 0 0 0 0 0 0 0 0 0 0 0 0 0 0 0 0 0 0 0 0 0 0 0 0 0 0 0 0 0
0 0 0 0 0 0 0 0 0 0 0 0 0 0 0 0 0 0 0 0 0 0 0 0 0 0 0 0 0 0 0 0 0 0 0 0 0 0 0 0 0 0 0
0 0 0 0 0 0 0 0 0 0 0 0 0 0 0 0 0 0 0 0 0 0 0 0 0 0 0 0 0 0 0 0 0 0 0 0 0 0 0 0 0 0 0
0 0 0 0 0 0 0 0 0 0 0 0 0 0 0 0 0 0 0 0 0 0 0 0 0 0 0 0 0 0 0 0 0 0 0 0 0 0 0 0 0 0 0
0 0 0 0 0 0 0 0 0 0 0 0 0 0 0 0 0 0 0 0 0 0 0 0 0 0 0 0 0 0 0 0 0 0 0 0 0 0 0 0 0 0 0
0 0 0 0 0 0 0 0 0 0 0 0 0 0 0 0 0 0 0 0 0 0 0 0 0 0 0 0 0 0 0 0 0 0 0 0 0 0 0 0 0 0 0
0 0 0 0 0 0 0 0 0 0 0 0 0 0 0 0 0 0 0 0 0 0 0 0 0 0 0 0 0 0 0 0 0 0 0 0 0 0 0 0 0 0 0
0 0 0 0 0 0 0 0 0 0 0 0 0 0 0 0 0 0 0 0 0 0 0 0 0 0 0 0 0 0 0 0 0 0 0 0 0 0 0 0 0 0 0
0 0 0 0 0 0 0 0 0 0 0 0 0 0 0 0 0 0 0 0 0 0 0 0 0 0 0 0 0 0 0 0 0 0 0 0 0 0 0 0 0 0 0
Wind_Speed
2 2 3 3 4 4 4 5 6 6 6 7 8 9 10 11 12 12 13 12 14 14 13 13 15 13 11 9 9 10 10 11 15 10 5 6 8 8 7 8 8 9 9
2 2 2 2 2 3 4 5 5 6 6 7 7 7 8 9 10 12 13 13 14 15 15 14 15 12 14 11 10 12 11 11 13 15 7 6 9 8 8 8 7 7 8
0 0 1 1 2 3 4 4 4 5 5 5 6 7 8 8 9 10 11 12 13 14 14 15 15 14 15 12 12 12 10 10 11 12 11 6 6 5 6 5 6 6 6
2 1 2 2 3 4 4 4 4 5 5 6 6 7 7 8 8 9 9 11 12 12 13 13 14 14 15 14 12 13 11 11 10 11 10 6 5 4 4 5 5 5 6
3 3 3 4 4 4 4 4 5 5 5 6 6 6 6 6 6 7 8 10 11 12 12 12 13 13 15 14 11 11 11 11 10 10 10 8 6 4 6 5 7 6 6
3 3 4 4 5 5 5 5 5 6 6 5 6 6 7 6 8 9 9 9 10 11 12 11 11 12 12 15 16 16 15 14 13 12 11 11 10 8 7 6 6 5 6
3 3 4 4 5 5 6 5 6 6 6 6 6 6 7 8 9 9 9 9 10 10 10 10 9 8 10 11 12 15 16 17 18 15 15 14 11 9 8 9 9 9 9
3 4 4 4 5 6 6 6 6 6 6 6 7 7 8 8 10 9 9 9 9 9 9 9 9 9 8 9 10 11 12 13 14 14 14 14 11 8 10 11 11 8 4
3 4 5 5 5 6 6 7 6 6 6 6 6 7 8 9 10 10 9 6 7 8 8 8 8 9 10 10 10 11 11 10 10 13 14 14 13 12 9 6 6 5 6
4 4 4 4 4 5 6 7 6 6 6 6 6 6 7 8 10 10 8 5 7 7 7 7 8 9 10 10 9 10 12 11 6 6 8 10 10 11 12 11 9 8 5
4 4 4 4 5 5 5 5 6 5 6 6 7 6 6 6 9 10 9 5 6 7 7 7 6 10 11 11 11 10 13 10 7 7 8 7 6 6 7 8 8 8 8
3 4 4 4 4 4 5 5 5 5 5 6 6 7 5 5 6 8 10 9 9 8 8 8 8 12 13 14 11 12 13 10 6 6 7 7 7 6 5 6 7 7 7
3 4 4 4 4 4 4 5 5 4 4 5 5 6 7 6 6 10 10 11 12 8 8 12 14 14 12 10 10 11 8 6 6 6 7 7 6 5 4 3 3 3 3
3 3 4 4 4 4 4 4 4 4 4 4 5 6 7 6 6 6 6 7 8 8 8 9 12 12 9 8 7 6 5 5 6 7 6 5 4 3 3 3 3 3 3
2 3 3 3 4 4 4 4 5 4 4 5 4 5 6 7 9 13 11 8 8 8 9 6 6 5 5 5 5 4 4 4 4 5 5 4 4 4 3 3 3 3 4
2 3 3 3 3 4 4 5 7 6 9 9 9 9 7 10 15 16 16 15 15 14 8 6 6 6 6 6 6 5 4 4 4 4 4 4 4 4 4 3 3 4 4
2 2 2 3 3 4 4 5 6 7 9 10 11 13 12 14 16 16 16 15 14 11 5 5 6 6 6 6 6 6 6 5 4 4 4 4 4 4 3 3 3 3 4
2 2 2 2 3 3 3 4 4 6 7 7 9 13 15 15 15 16 15 11 8 7 4 5 6 6 6 6 6 6 5 5 4 4 4 4 4 4 4 4 4 4 4
2 2 2 2 3 3 3 4 4 4 5 6 7 8 11 13 13 13 12 5 6 6 6 5 6 6 6 6 6 6 6 5 5 4 4 4 4 4 4 4 4 5 4
2 3 2 2 2 3 3 3 4 4 5 5 6 7 7 7 6 7 6 5 5 6 6 6 6 6 6 6 6 6 6 5 5 4 4 4 4 4 5 5 4 4 4
1 2 2 2 2 2 3 3 3 4 4 5 6 7 11 6 6 7 6 5 5 6 6 6 6 7 6 6 6 6 7 6 5 5 4 4 4 4 4 4 4 4 4
1 1 1 2 2 2 3 3 3 4 5 6 6 7 10 6 5 6 6 6 5 5 5 6 6 6 6 6 6 6 7 7 6 5 5 5 4 4 4 4 4 4 4
1 1 2 2 2 3 3 3 3 4 5 5 6 6 5 5 5 6 6 6 6 6 5 5 6 7 6 5 6 6 7 7 7 6 6 6 5 4 4 4 5 5 5
1 1 2 2 2 2 3 4 4 4 5 5 5 5 5 5 6 6 6 6 6 6 6 5 6 8 10 9 7 6 6 7 7 6 7 6 6 5 5 5 5 5 5
1 1 1 2 2 3 3 4 4 4 5 5 5 5 5 5 6 6 6 6 7 7 8 8 7 8 10 11 10 9 10 11 10 7 6 6 6 6 5 5 5 5 5
1 1 2 2 2 3 3 4 4 5 5 5 5 5 6 6 6 6 6 6 7 7 8 7 8 10 12 10 11 13 12 12 11 10 6 5 6 6 5 5 5 5 5
Wind_Direction
200 210 217 229 232 236 241 246 248 251 247 241 238 234 232 231 229 230 233 233 234 237 235 236 239 236 237 235 232 233 234 236 255 261 225 215 210 219 222 221 224 224 224
196 205 225 241 247 249 253 257 258 258 256 250 246 241 239 238 234 233 236 236 236 238 237 237 240 238 238 238 236 236 236 234 245 260 250 220 220 217 219 219 219 219 223
112 173 270 282 280 271 269 271 273 271 269 265 255 248 246 243 239 238 239 241 240 242 241 240 242 239 241 239 237 239 239 237 239 251 256 232 226 213 218 224 223 222 220
33 21 334 312 298 289 289 291 286 280 277 275 268 262 256 250 245 243 243 245 247 247 246 244 243 240 241 240 239 239 238 239 238 245 252 243 227 206 199 218 235 227 227
30 16 349 335 330 328 324 316 307 298 287 282 279 277 271 260 254 251 248 249 251 254 252 249 248 247 245 243 242 240 237 240 240 242 248 246 228 201 211 204 225 230 230
30 11 354 349 346 343 334 329 322 314 308 301 290 284 281 276 275 262 255 256 255 255 257 256 254 247 247 247 245 242 238 240 242 242 244 242 238 220 214 204 211 217 240
23 6 357 351 343 335 330 329 325 319 314 306 300 295 289 289 293 284 269 263 261 259 259 260 261 257 249 250 250 248 246 243 240 244 249 247 240 220 206 211 211 217 231
18 4 356 350 341 335 332 326 320 315 312 305 304 303 298 300 304 298 289 270 268 266 264 261 262 263 255 253 256 254 252 248 243 243 249 253 248 231 210 213 214 221 235
16 358 345 341 336 332 328 322 318 316 313 308 304 301 297 299 305 303 299 285 279 278 275 270 267 268 266 262 258 260 262 259 251 243 247 251 248 238 220 208 202 202 234
352 338 333 332 328 324 319 316 312 309 305 306 304 301 295 297 308 310 305 289 288 289 285 275 266 266 271 264 259 261 263 265 259 258 253 254 250 241 224 219 213 215 224
332 331 334 331 324 316 313 313 312 311 312 312 310 307 301 300 310 315 312 294 290 292 289 286 279 277 277 272 265 259 260 266 262 254 255 252 246 240 230 225 221 220 222
337 334 330 325 321 321 318 318 318 319 320 319 318 317 316 316 317 318 314 304 301 289 287 287 283 283 280 277 271 267 267 264 258 255 256 254 248 244 237 227 224 225 230
340 328 321 322 324 324 322 322 323 323 320 321 324 322 322 324 323 322 317 312 304 292 285 285 287 288 285 276 268 267 263 254 251 253 253 256 253 247 236 227 221 216 232
327 325 327 330 332 334 331 326 322 323 324 324 325 322 320 322 324 325 320 314 309 300 294 292 291 288 281 277 277 271 255 249 248 252 256 260 256 246 240 232 231 218 228
332 332 332 333 333 334 332 322 317 318 328 321 315 315 317 319 321 324 323 318 314 306 308 301 298 297 292 287 284 277 268 260 254 256 256 260 256 248 248 231 228 228 230
336 334 332 330 331 331 328 326 327 324 330 333 333 328 317 318 322 326 326 325 324 322 315 301 297 292 288 288 289 289 281 268 262 260 256 253 252 247 248 236 223 223 233
318 320 324 327 328 331 333 332 328 332 335 338 340 339 336 332 332 333 332 329 331 335 326 312 306 301 296 289 286 286 286 281 272 262 259 256 250 246 242 238 231 230 232
309 307 313 315 321 325 326 324 323 324 325 326 335 338 338 336 337 339 339 339 335 340 328 317 311 310 308 303 296 291 289 287 279 271 265 260 252 247 243 236 229 228 228
299 303 308 314 319 319 320 320 318 315 313 315 323 331 336 333 335 341 346 345 327 323 322 316 313 311 309 308 306 301 295 289 284 279 270 263 257 252 249 242 234 223 222
291 305 313 313 315 316 318 316 315 315 315 317 321 324 331 335 335 338 344 335 325 320 320 318 318 317 316 314 313 308 302 295 290 285 278 272 265 257 252 245 236 227 227
287 299 305 310 305 305 304 301 303 305 307 309 310 319 331 330 326 327 329 330 325 318 317 317 315 314 314 313 311 309 305 296 293 289 283 277 270 264 259 253 247 237 229
265 284 297 294 297 298 297 298 301 302 305 307 310 319 330 330 321 318 319 319 320 317 315 312 310 310 311 311 308 306 303 300 296 293 288 282 272 264 257 249 243 239 228
260 282 290 291 290 297 301 301 301 301 302 304 308 314 321 320 317 316 316 316 317 317 317 314 310 309 311 309 305 298 292 292 293 288 284 283 281 272 257 247 237 231 227
245 259 276 289 295 296 298 300 300 301 302 304 307 309 312 314 312 312 313 315 315 314 314 312 307 306 307 309 306 300 292 291 291 285 278 273 272 271 263 252 244 233 223
234 248 263 276 285 289 294 296 298 298 298 300 302 303 305 306 307 308 311 312 313 313 314 312 308 308 308 308 306 303 300 298 293 284 274 266 262 260 255 251 246 238 224
239 247 257 266 273 278 283 290 294 297 297 298 299 300 301 302 303 305 307 309 311 310 310 310 308 308 307 308 306 306 304 300 297 289 276 266 260 256 250 246 242 231 215